Simultaneous Nadir Overpasses (SNOs) Predictions

Prediction of SNOs between METOP-A and TERRA Satellite Orbit:

Table of predicted SNOs for the next 14.0 days since TLE Epoch: 7/7/2017
Index Date (METOP-A) Time (METOP-A) Lat,Lon (METOP-A) SZA (METOP-A ) Date (TERRA) Time (TERRA) Lat,Lon (TERRA) SZA (TERRA ) Distance(km) Time Diff (sec)
1 07/09/2017 11:18:15 81.35, 58.60 61.92 07/09/2017 11:19:01 81.35, 58.54 61.93 1.26 46
2 07/09/2017 12:08:55 -81.35,-133.82 118.05 07/09/2017 12:08:28 -81.35,-133.87 118.07 0.90 27
3 07/12/2017 06:52:36 81.34, 124.55 62.22 07/12/2017 06:53:20 81.34, 124.74 62.26 3.19 44
4 07/12/2017 07:43:16 -81.35, -67.82 117.75 07/12/2017 07:42:47 -81.34, -67.64 117.74 3.13 29
5 07/15/2017 02:26:56 81.35,-168.73 62.66 07/15/2017 02:27:41 81.34,-168.86 62.67 2.19 45
6 07/15/2017 03:17:36 -81.35, -1.06 117.29 07/15/2017 03:17:08 -81.34, -1.21 117.33 2.69 28
7 07/17/2017 22:01:17 81.35,-102.42 63.11 07/17/2017 22:02:03 81.35,-102.25 63.15 2.88 46
8 07/17/2017 22:51:57 -81.35, 65.30 116.84 07/17/2017 22:51:30 -81.35, 65.42 116.84 2.04 27
9 07/20/2017 17:35:36 81.35, -35.72 63.65 07/20/2017 17:36:26 81.35, -35.83 63.67 1.83 50




NCC Satellite Simultaneous Nadir Overpasses (SNOs) Prediction Service
